Flag for U.S.A. Weather past 2 weeks in Grand Junction, Colorado, U.S.A.

Now
75 °F

Clear.


Feels Like: 76 °F
Forecast: 71 / 94 °F
Wind: 15 mph from Southeast

Location: Walker Field

Current Time: Jul 23, 2014 at 6:30:19 AM

Latest Report: Jul 23, 2014 at 4:53 AM


Visibility: 10 mi

Pressure: 29.97 "Hg

Humidity: 19%

Dew point: 30 °F

Location of Grand JunctionLocation

Historic Weather in Grand Junction — Graph

°F

Grand Junction temperature yesterday

Maximum temperature yesterday: 97 °F (at 5:53 PM)
Minimum temperature yesterday: 63 °F (at 5:53 AM)
Average temperature yesterday: 77 °F

Past Weeks' High & Low Weather Summary

 TemperatureHumidityPressure
High97 °F (Jul 13, 4:53 PM)81% (Jul 11, 5:53 AM)30.09 "Hg (Jul 11, 5:53 AM)
Low62 °F (Jul 18, 5:53 AM)7% (Jul 21, 5:53 PM)29.64 "Hg (Jul 16, 6:53 PM)
Average80 °F28%29.85 "Hg
* Reported Jul 8 4:53 AM — Jul 23 4:53 AM, Grand Junction, Weather by CustomWeather, © 2014

Note: Actual official high and low records may vary slightly from our data, if they occured in-between our weather recording intervals... More about our weather records

Advertising

Grand Junction weather history for July 10, 2014

 ConditionsComfort  
Time TempWeatherWind HumidityBarometerVisibility
12:53 AM
Jul 10
71 °FClear.3 mph53%29.84 "Hg10 mi
1:53 AM70 °FClear.5 mph51%29.83 "Hg10 mi
2:53 AM68 °FClear.7 mph53%29.85 "Hg10 mi
3:53 AM69 °FClear.6 mph49%29.84 "Hg10 mi
4:53 AM66 °FPassing clouds.No wind54%29.88 "Hg10 mi
5:53 AM65 °FClear.5 mph52%29.88 "Hg10 mi
6:53 AM69 °FPassing clouds.No wind45%29.88 "Hg10 mi
7:53 AM75 °FSunny.9 mph37%29.88 "Hg10 mi
8:53 AM76 °FSunny.8 mph37%29.89 "Hg10 mi
9:53 AM80 °FSunny.6 mph32%29.87 "Hg10 mi
10:53 AM82 °FSunny.5 mph31%29.87 "Hg10 mi
11:53 AM85 °FSunny.8 mph29%29.84 "Hg10 mi
12:53 PM86 °FSunny.7 mph27%29.82 "Hg10 mi
1:53 PM88 °FSunny.7 mph25%29.79 "Hg10 mi
2:53 PM91 °FSunny.10 mph25%29.75 "Hg10 mi
3:53 PM90 °FSunny.3 mph23%29.73 "Hg10 mi
4:53 PM91 °FSunny.No wind24%29.71 "Hg10 mi
5:53 PM90 °FSunny.6 mph24%29.69 "Hg10 mi
6:53 PM83 °FSunny.10 mph33%29.72 "Hg10 mi
7:53 PM85 °FSunny.No wind31%29.71 "Hg10 mi
8:53 PM84 °FPassing clouds.12 mph33%29.73 "Hg10 mi
9:53 PM82 °FPassing clouds.8 mph33%29.75 "Hg10 mi
10:53 PM80 °FClear.7 mph35%29.78 "Hg10 mi
11:53 PM79 °FClear.13 mph35%29.79 "Hg10 mi
Weather by CustomWeather, © 2014

See weather overviewHow to use our weather pages